Location: Burg
(43.1901°N, 0.3251°E)
Time: 11:46:46
(UTC+00:00)

Daily predictions for brighter satellites

Satellite Brightness Start Highest point End
(mag) Time Altitude Azimuth Time Altitude Azimuth Time Altitude Azimuth
Cosmos 2369 4.4 16:48:01 10° N 16:53:11 33° NE 16:58:19 10° ESE
Cosmos 1842 Rocket 3.8 16:50:47 10° SSW 16:55:14 79° W 16:59:44 10° N
USA 234 3.4 16:49:25 10° ESE 16:55:46 55° NNE 17:02:06 10° NW
CZ-4C R/B 3.6 16:50:51 10° NNW 16:57:04 32° NE 17:04:13 10° E
Cosmos 1092 Rocket 4.3 16:52:41 10° N 16:58:51 49° ENE 17:04:56 10° SSE
Cosmos 2084 3.5 16:54:46 10° NNW 16:59:05 71° NE 17:03:34 10° SE
Cosmos 1812 4.4 16:57:05 10° ESE 16:59:24 15° E 17:01:42 10° NE
NOSS 3-1 (A) 4.1 16:52:03 10° NW 16:59:39 75° NE 17:08:29 10° SE
NOSS 3-1 (C) 4.5 16:52:07 10° NW 16:59:47 76° WSW 17:08:37 10° SSE
SL-16 R/B 4.0 17:00:13 10° NNE 17:01:51 11° NE 17:03:29 10° ENE
ISS -2.5 16:59:02 10° NW 17:01:58 26° NNE 17:04:53 10° ENE
Meteor 1-25 Rocket 4.3 16:59:00 10° N 17:04:30 59° ENE 17:10:02 10° SSE
SMAP 3.2 17:00:07 10° SSE 17:04:38 54° ENE 17:09:11 10° N
Cosmos 2082 Rocket 2.9 16:59:41 10° SSE 17:04:44 34° ESE 17:09:48 10° NE
Meteor PRIRODA 3.7 17:01:42 10° S 17:05:20 81° WSW 17:08:59 10° NNW
Cosmos 1939 Rocket 2.9 17:01:49 10° SSE 17:05:51 59° ENE 17:09:53 10° N
CORIOLIS 4.3 17:02:22 10° SSE 17:07:36 54° ENE 17:12:53 10° N
NOAA 12 4.2 17:05:29 10° SSE 17:10:48 85° WSW 17:16:10 10° NNW
CZ-4B DEB 4.3 17:08:39 10° SE 17:13:59 53° ENE 17:19:19 10° N
Cosmos 2278 4.5 17:12:13 10° N 17:17:13 30° NE 17:22:09 10° ESE
Cosmos 1602 3.8 17:14:10 10° N 17:17:59 56° E 17:21:47 10° SSE
AQUARIUS 4.1 17:14:07 10° SSE 17:18:33 63° ENE 17:23:00 10° N
Cosmos 540 Rocket 3.4 17:14:39 10° S 17:19:42 68° ESE 17:24:47 10° NNE
Cosmos 1627 Rocket 4.5 17:14:14 10° N 17:20:20 60° E 17:26:22 10° SSE
Cosmos 2034 Rocket 4.3 17:14:55 10° SSW 17:21:03 69° W 17:27:12 10° N
Radarsat 4.5 17:17:50 10° SSE 17:23:00 72° ENE 17:28:12 10° N
ARGOS 3.9 17:19:43 10° ESE 17:24:18 29° ENE 17:28:53 10° N
Cosmos 2279 Rocket 4.4 17:19:11 10° SSE 17:24:51 38° E 17:30:30 10° NNE
COSMOS 2406 3.2 17:19:34 10° SSW 17:25:20 84° ESE 17:31:05 10° NNE
Cosmos 1833 Rocket 2.9 17:21:03 10° SSW 17:26:39 75° WNW 17:32:18 10° NNE
COSMO-SKYMED 1 3.5 17:23:33 10° NE 17:27:19 28° E 17:31:03 10° SSE
Cosmos 1782 2.8 17:24:19 10° S 17:28:15 60° E 17:32:12 10° NNE
ATLAS 5 CENTAUR R/B 3.5 17:25:07 10° NW 17:31:15 22° N 17:33:09 16° NE
Meteor 2-21 4.4 17:25:17 10° N 17:31:20 65° E 17:37:19 10° SSE
CZ-2C R/B 3.8 17:32:17 10° SSE 17:32:54 10° SSE 17:33:30 10° SSE
Cosmos 1633 Rocket 3.7 17:31:58 10° NNE 17:35:53 31° ENE 17:39:48 10° SE
CZ-2D R/B 3.1 17:35:33 10° SSE 17:39:20 65° ENE 17:43:08 10° N
Cosmos 1898 Rocket 4.0 17:34:49 10° NNW 17:40:01 65° WSW 17:45:09 10° S
Cosmos 1634 Rocket 4.0 17:35:21 10° S 17:41:40 82° E 17:48:02 10° N
COSMOS 2455 2.8 17:36:33 10° SSW 17:42:34 83° ESE 17:48:14 12° NNE
PAYLOAD B 4.2 17:38:12 10° SSE 17:43:46 74° ENE 17:49:23 10° N
CZ-4B R/B 3.2 17:41:05 10° SE 17:46:21 54° ENE 17:51:33 10° N
CZ-2C R/B 2.7 17:41:49 10° NNE 17:46:51 49° E 17:51:50 10° S
Cosmos 1151 Rocket 3.1 17:43:05 10° S 17:47:15 52° E 17:51:27 10° NNE
Cosmos 1500 3.0 17:43:45 10° N 17:47:30 83° E 17:51:13 10° S
Cosmos 2026 Rocket 4.0 17:43:00 10° N 17:49:10 85° W 17:55:13 10° S
Lacrosse 5 rocket 2.6 17:47:12 10° NNW 17:50:17 21° NNE 17:50:36 21° NNE
Okean O Rocket 1.9 17:46:16 10° SE 17:50:26 42° ENE 17:54:39 10° N
Meteor 2-14 Rocket 4.5 17:48:19 10° N 17:54:27 84° W 18:00:31 10° S
Cosmos 2208 Rocket 4.3 17:53:17 10° S 17:58:26 49° ESE 18:01:39 22° NE
Cosmos 1666 Rocket 3.4 17:57:22 10° N 18:01:50 74° E 18:06:13 10° SSE
H-2A R/B 2.0 17:57:16 10° SSE 18:02:28 84° WSW 18:07:33 10° NNW
NOSS 2-2 (C) 4.4 17:57:13 10° NW 18:02:37 85° NE 18:10:17 10° SE
Meteor 1-11 Rocket 4.4 17:58:51 10° N 18:03:50 31° ENE 18:05:46 25° ESE
Cosmos 1328 Rocket 3.6 18:00:26 10° S 18:04:46 57° E 18:07:30 22° NNE
Cosmos 1470 Rocket 4.0 18:00:51 10° N 18:05:01 38° ENE 18:09:10 10° SE
USA 267 4.0 18:01:03 17° NE 18:05:49 44° NNW 18:11:56 10° W
Cosmos 1655 Rocket 4.3 18:01:05 10° N 18:07:12 45° ENE 18:13:13 10° SSE
USA 305 4.4 18:05:17 10° NW 18:08:32 21° N 18:08:46 21° NNE
Cosmos 2360 Rocket 4.0 18:05:36 10° N 18:07:10 14° NNE 18:07:10 14° NNE
Landsat 5 3.4 18:08:42 38° NE 18:09:54 55° E 18:13:48 10° S
Cosmos 2180 Rocket 4.4 18:07:10 10° S 18:13:28 71° E 18:19:44 10° NNE
Cosmos 841 Rocket 4.2 18:08:53 10° SW 18:13:54 52° WNW 18:18:54 10° N
SKYMED 2 3.5 18:12:01 16° NNE 18:15:32 88° WNW 18:19:52 10° SSW
Feng Yun 1-1 Rocket 4.4 18:10:04 10° SE 18:15:47 53° ENE 18:21:28 10° N
Cosmos 1666 2.6 18:13:14 10° N 18:16:58 80° W 18:20:40 10° S
Meteor 2-8 Rocket 4.3 18:10:56 10° S 18:17:03 73° E 18:23:13 10° NNE
ATLAS CENTAUR R/B 3.6 18:10:02 10° WSW 18:18:23 39° NW 18:20:44 23° NNE
Cosmos 1125 Rocket 4.1 18:18:10 10° N 18:22:14 37° NE 18:22:14 37° NE
SL-24 R/B - RUBIN 2 4.1 18:22:18 10° NW 18:26:42 57° WSW 18:30:54 10° SSE
Cosmos 2322 Rocket 3.3 18:24:20 10° N 18:27:49 28° NNE 18:27:49 28° NNE
SL-08 RB Rocket 3.6 18:29:00 10° SSE 18:33:38 82° ENE 18:38:17 10° N
Cosmos 1812 4.2 18:31:15 10° SW 18:34:47 36° WNW 18:37:47 14° NNW
Cosmos 1980 Rocket 3.0 18:29:57 10° NW 18:35:26 52° WSW 18:40:51 10° S
USA 234 4.0 18:32:28 10° SSE 18:38:48 51° SW 18:45:08 10° WNW
ISS -2.5 18:35:40 10° WNW 18:37:58 40° WNW 18:37:58 40° WNW
deb Chang Zheng 4 4.5 18:35:35 10° S 18:39:44 48° W 18:43:55 10° NNW
CZ-4C R/B 3.1 18:38:57 10° NW 18:46:23 81° SW 18:54:56 10° SSE
Cosmos 1515 Rocket 3.9 18:42:33 10° S 18:46:04 56° S 18:46:04 56° S
SL-16 R/B 2.5 18:41:42 10° NNW 18:46:11 47° NNE 18:46:11 47° NNE
Cosmos 2082 Rocket 3.5 18:43:30 10° SW 18:48:45 37° WNW 18:52:36 17° N
Cosmos 44 Rocket 3.6 18:49:15 10° NNW 18:53:10 56° NNW 18:53:10 56° NNW
COSMO-SKYMED 1 4.5 19:00:37 15° NNW 19:03:25 28° WNW 19:07:04 10° SW
ARGOS 4.4 18:59:19 10° SSW 19:04:23 40° W 19:09:28 10° NNW
Meteor 1-27 Rocket 4.2 19:02:42 10° S 19:06:41 49° S 19:06:41 49° S
DMSP B5D2-2 4.3 19:10:16 64° SW 19:10:16 64° SW 19:14:47 10° SSW
Cosmos 2298 Rocket 4.3 19:04:41 10° NNW 19:09:28 66° WNW 19:09:28 66° WNW
Cosmos 921 Rocket 4.4 19:06:37 10° SW 19:09:34 36° WSW 19:09:34 36° WSW
CZ-2C R/B 3.8 19:08:29 10° SW 19:09:35 15° SSW 19:09:35 15° SSW
Cosmos 2266 Rocket 4.5 19:09:58 10° NNW 19:16:14 60° W 19:22:31 10° S
GEOS 3 Rocket 4.3 19:19:06 49° NW 19:19:06 49° NW 19:22:52 10° NW
Cosmos 1818 4.1 19:14:46 10° NW 19:19:33 57° W 19:19:33 57° W
Okean O Rocket 4.2 19:23:45 10° SW 19:26:57 19° W 19:30:11 10° NW
Lacrosse 5 rocket 4.1 19:25:44 10° NW 19:26:13 13° NW 19:26:13 13° NW
BREEZE-M DEB (TANK) 4.2 19:21:25 10° SW 19:44:42 81° NW 19:44:57 80° N
